Weather History for Eagle River, WI

Change the Weather History Date:

Tuesday, November 29, 2011

  Actual Average Record
Temperature  
Mean Temperature 24 °F -  
Max Temperature 32 °F 33 °F 55 °F (1998)
Min Temperature 15 °F 17 °F 1 °F (2013)
Degree Days  
Heating Degree Days 42    
Moisture  
Dew Point 19 °F    
Average Humidity 75    
Maximum Humidity 100    
Minimum Humidity 55    
Precipitation  
Precipitation 0.00 in - - ()
Sea Level Pressure  
Sea Level Pressure 30.13 in    
Wind  
Wind Speed 9 mph (North)    
Max Wind Speed 17 mph    
Max Gust Speed 22 mph    
Visibility 10 miles    
Events      
Averages and records for this station are not official NWS values.
T = Trace of Precipitation, MM = Missing Value Source: NWS Daily Summary

Daily Weather History Graph

Daily Weather History Graph

Search for Another Location

Airport:

Trip Planner

Search our weather history database for the weather conditions in past years. The results will help you decide how hot, cold, wet, or windy it might be!

Date:

Astronomy

Nov. 29, 2011 Rise Set
Actual Time 7:15 AM CST 4:14 PM CST
Civil Twilight 6:41 AM CST 4:48 PM CST
Nautical Twilight 6:04 AM CST 5:25 PM CST
Astronomical Twilight 5:28 AM CST 6:01 PM CST
Moon 10:56 AM CST (11/29) 9:14 PM CST (11/29)
Length of Visible Light 10h 06m
Length of Day
8h 59m
Waxing Crescent, 24% of the Moon is Illuminated
Nov 29
Waxing Crescent
Dec 2
First Quarter
Dec 10
Full
Dec 17
Last Quarter
Dec 24
New

Hourly Weather History & Observations

Time (CST) Temp. Windchill Dew Point Humidity Pressure Visibility Wind Dir Wind Speed Gust Speed Precip Events Conditions
12:15 AM 30.9 °F 21.2 °F 27.1 °F 86% 30.10 in 10.0 mi North 12.7 mph - N/A   Clear
12:35 AM 30.7 °F 21.4 °F 27.1 °F 86% 30.11 in 10.0 mi North 11.5 mph - N/A   Scattered Clouds
12:55 AM 30.7 °F 23.3 °F 27.1 °F 86% 30.11 in 10.0 mi North 8.1 mph 16.1 mph N/A   Mostly Cloudy
1:15 AM 30.7 °F 22.6 °F 27.3 °F 87% 30.11 in 10.0 mi North 9.2 mph - N/A   Scattered Clouds
1:35 AM 30.2 °F 21.3 °F 26.8 °F 87% 30.12 in 10.0 mi North 10.4 mph - N/A   Clear
1:55 AM 29.8 °F 22.2 °F 25.9 °F 85% 30.13 in 10.0 mi North 8.1 mph - N/A   Clear
2:15 AM 29.3 °F 20.2 °F 24.8 °F 83% 30.13 in 10.0 mi North 10.4 mph - N/A   Clear
2:35 AM 28.9 °F 22.8 °F 24.1 °F 82% 30.14 in 10.0 mi North 5.8 mph - N/A   Clear
2:55 AM 28.4 °F 22.2 °F 23.4 °F 81% 30.14 in 10.0 mi North 5.8 mph - N/A   Clear
3:15 AM 27.7 °F 22.4 °F 22.6 °F 81% 30.14 in 10.0 mi North 4.6 mph - N/A   Clear
3:35 AM 27.3 °F 19.1 °F 21.9 °F 80% 30.13 in 10.0 mi North 8.1 mph - N/A   Clear
3:55 AM 27.5 °F 18.6 °F 21.2 °F 77% 30.14 in 10.0 mi North 9.2 mph - N/A   Clear
4:15 AM 27.3 °F 19.1 °F 20.3 °F 75% 30.15 in 10.0 mi North 8.1 mph - N/A   Clear
4:35 AM 27.0 °F 18.7 °F 19.4 °F 73% 30.15 in 10.0 mi North 8.1 mph - N/A   Clear
4:55 AM 26.4 °F 18.0 °F 18.9 °F 73% 30.16 in 10.0 mi North 8.1 mph - N/A   Clear
5:15 AM 26.4 °F 18.9 °F 18.0 °F 70% 30.16 in 10.0 mi North 6.9 mph - N/A   Clear
5:35 AM 25.9 °F 18.2 °F 17.4 °F 70% 30.18 in 10.0 mi NNE 6.9 mph - N/A   Clear
5:55 AM 25.3 °F 17.6 °F 17.1 °F 71% 30.18 in 10.0 mi NNE 6.9 mph - N/A   Clear
6:15 AM 25.0 °F 16.3 °F 17.1 °F 72% 30.16 in 10.0 mi North 8.1 mph - N/A   Clear
6:35 AM 25.2 °F 15.7 °F 17.6 °F 73% 30.17 in 10.0 mi NNE 9.2 mph - N/A   Clear
6:55 AM 24.8 °F 15.3 °F 17.6 °F 74% 30.17 in 10.0 mi NNE 9.2 mph - N/A   Scattered Clouds
7:15 AM 24.6 °F 15.8 °F 17.8 °F 75% 30.17 in 10.0 mi NNE 8.1 mph - N/A   Scattered Clouds
7:35 AM 25.0 °F 12.6 °F 18.1 °F 75% 30.17 in 10.0 mi NNE 15.0 mph 21.9 mph N/A   Mostly Cloudy
7:55 AM 25.2 °F 13.3 °F 18.1 °F 75% 30.17 in 10.0 mi North 13.8 mph 17.3 mph N/A   Mostly Cloudy
8:15 AM 25.0 °F 14.2 °F 18.3 °F 76% 30.17 in 10.0 mi NNE 11.5 mph 17.3 mph N/A   Mostly Cloudy
8:35 AM 25.2 °F 15.1 °F 18.5 °F 76% 30.18 in 10.0 mi North 10.4 mph - N/A   Scattered Clouds
8:55 AM 25.7 °F 15.1 °F 18.9 °F 75% 30.17 in 10.0 mi NNE 11.5 mph 17.3 mph N/A   Scattered Clouds
9:15 AM 26.8 °F 17.7 °F 19.4 °F 74% 30.17 in 10.0 mi NNE 9.2 mph 18.4 mph N/A   Clear
9:35 AM 27.9 °F 16.8 °F 19.6 °F 71% 30.19 in 10.0 mi NNE 13.8 mph 19.6 mph N/A   Clear
9:55 AM 28.6 °F 17.2 °F 19.2 °F 68% 30.20 in 10.0 mi NNE 15.0 mph - N/A   Clear
10:35 AM 30.0 °F 20.5 °F 19.2 °F 64% 30.18 in 10.0 mi NNE 11.5 mph - N/A   Clear
10:55 AM 30.4 °F 20.0 °F 18.3 °F 61% 30.17 in 10.0 mi NNE 13.8 mph - N/A   Clear
11:15 AM 30.9 °F 19.4 °F 18.0 °F 59% 30.17 in 10.0 mi NNE 17.3 mph 21.9 mph N/A   Clear
11:35 AM 31.1 °F 20.1 °F 17.6 °F 57% 30.16 in 10.0 mi NNE 16.1 mph 20.7 mph N/A   Clear
12:15 PM 31.6 °F 21.2 °F 18.0 °F 57% 30.15 in 10.0 mi NNE 15.0 mph 20.7 mph N/A   Clear
12:35 PM 32.0 °F 23.0 °F 17.8 °F 56% 30.14 in 10.0 mi North 11.5 mph 17.3 mph N/A   Clear
12:55 PM 32.0 °F 23.0 °F 17.6 °F 55% 30.14 in 10.0 mi North 11.5 mph - N/A   Clear
1:35 PM 32.0 °F 23.0 °F 17.8 °F 56% 30.13 in 10.0 mi North 11.5 mph 18.4 mph N/A   Clear
1:55 PM 32.0 °F 23.0 °F 18.0 °F 56% 30.13 in 10.0 mi NNE 11.5 mph 18.4 mph N/A   Clear
2:15 PM 32.0 °F 21.6 °F 18.0 °F 56% 30.12 in 10.0 mi NE 15.0 mph 20.7 mph N/A   Clear
2:35 PM 31.8 °F 23.9 °F 17.8 °F 56% 30.11 in 10.0 mi North 9.2 mph - N/A   Clear
2:55 PM 31.3 °F 22.7 °F 18.3 °F 59% 30.11 in 10.0 mi North 10.4 mph 17.3 mph N/A   Clear
3:15 PM 30.4 °F 21.5 °F 17.6 °F 59% 30.11 in 10.0 mi North 10.4 mph 16.1 mph N/A   Clear
3:35 PM 29.7 °F 21.3 °F 18.0 °F 62% 30.11 in 10.0 mi North 9.2 mph 17.3 mph N/A   Clear
3:55 PM 28.8 °F 19.5 °F 18.3 °F 65% 30.12 in 10.0 mi NNW 10.4 mph - N/A   Clear
4:15 PM 27.7 °F 21.3 °F 18.3 °F 68% 30.12 in 10.0 mi North 5.8 mph - N/A   Clear
4:35 PM 26.6 °F 18.2 °F 18.0 °F 70% 30.12 in 10.0 mi North 8.1 mph - N/A   Clear
5:15 PM 24.8 °F 16.9 °F 18.0 °F 75% 30.12 in 10.0 mi North 6.9 mph - N/A   Clear
5:35 PM 24.4 °F 18.6 °F 18.1 °F 77% 30.12 in 10.0 mi NNE 4.6 mph - N/A   Clear
6:15 PM 23.5 °F 17.6 °F 18.0 °F 79% 30.10 in 10.0 mi North 4.6 mph - N/A   Clear
6:35 PM 22.6 °F 18.0 °F 17.8 °F 82% 30.09 in 10.0 mi North 3.5 mph - N/A   Clear
6:55 PM 21.7 °F 17.0 °F 17.2 °F 83% 30.08 in 10.0 mi NNW 3.5 mph - N/A   Clear
7:35 PM 18.5 °F - 17.1 °F 94% 30.06 in 10.0 mi Calm Calm - N/A   Clear
7:55 PM 17.4 °F - 17.4 °F 100% 30.07 in 10.0 mi Calm Calm - N/A   Clear
8:15 PM 16.2 °F - 16.2 °F 100% 30.06 in 10.0 mi Calm Calm - N/A   Clear
8:35 PM 16.2 °F - 16.2 °F 100% 30.06 in 10.0 mi Calm Calm - N/A   Clear
8:55 PM 15.4 °F - 15.4 °F 100% 30.06 in 10.0 mi Calm Calm - N/A   Clear
9:15 PM 15.1 °F - 15.1 °F 100% 30.05 in 10.0 mi Calm Calm - N/A   Clear
9:35 PM 14.4 °F - 14.4 °F 100% 30.04 in 10.0 mi Calm Calm - N/A   Clear
9:55 PM 15.1 °F - 15.1 °F 100% 30.03 in 10.0 mi Calm Calm - N/A   Clear
10:15 PM 15.1 °F - 14.9 °F 99% 30.01 in 10.0 mi Calm Calm - N/A   Clear
10:55 PM 13.5 °F - 13.5 °F 100% 30.01 in 10.0 mi Calm Calm - N/A   Clear
11:15 PM 12.0 °F - 12.0 °F 100% 30.01 in 10.0 mi Calm Calm - N/A   Clear
11:35 PM 12.4 °F - 12.4 °F 100% 30.01 in 10.0 mi Calm Calm - N/A   Clear
11:55 PM 13.5 °F - 13.5 °F 100% 30.00 in 10.0 mi Calm Calm - N/A   Clear